TimeEET,TemperatureF,Dew PointF,Humidity,Sea Level PressureIn,VisibilityMPH,Wind Direction,Wind SpeedMPH,Gust SpeedMPH,PrecipitationIn,Events,Conditions,WindDirDegrees,DateUTC
12:00 AM,59.0,50.0,72,29.98,-9999.0,NW,5.8,-,N/A,,Clear,320,2012-11-15 22:00:00
1:00 AM,59.0,50.0,72,29.98,-9999.0,SW,3.5,-,N/A,,Clear,230,2012-11-15 23:00:00
2:00 AM,57,44,50,29.98,6,SSW,3.5,,,,,210,2012-11-16 00:00:00
2:00 AM,57.2,42.8,59,29.98,-9999.0,SSW,3.5,-,N/A,,Clear,210,2012-11-16 00:00:00
3:00 AM,57.2,42.8,59,29.98,-9999.0,SW,3.5,-,N/A,,Clear,220,2012-11-16 01:00:00
4:00 AM,55.4,42.8,63,29.98,-9999.0,SW,4.6,-,N/A,,Clear,220,2012-11-16 02:00:00
5:00 AM,53.6,44.6,72,29.98,-9999.0,South,4.6,-,N/A,,Clear,180,2012-11-16 03:00:00
6:00 AM,53.6,46.4,77,29.95,-9999.0,SE,3.5,-,N/A,,Clear,130,2012-11-16 04:00:00
7:00 AM,53.6,42.8,67,29.98,-9999.0,SSW,2.3,-,N/A,,Clear,210,2012-11-16 05:00:00
8:00 AM,55,45,59,30.00,6,SSE,2.3,,,,Clear,160,2012-11-16 06:00:00
8:00 AM,55.4,44.6,67,29.98,-9999.0,SSE,2.3,-,N/A,,Clear,160,2012-11-16 06:00:00
9:00 AM,59.0,44.6,59,30.01,-9999.0,East,2.3,-,N/A,,Clear,90,2012-11-16 07:00:00
10:00 AM,68.0,50.0,52,30.01,-9999.0,SE,5.8,-,N/A,,Clear,130,2012-11-16 08:00:00
11:00 AM,80.6,51.8,37,29.98,-9999.0,South,5.8,-,N/A,,Clear,170,2012-11-16 09:00:00
12:00 PM,82.4,51.8,35,29.98,-9999.0,SSE,10.4,-,N/A,,Clear,160,2012-11-16 10:00:00
1:00 PM,84.2,51.8,33,29.95,-9999.0,SSW,8.1,-,N/A,,Clear,210,2012-11-16 11:00:00
2:00 PM,86,50,19,29.90,6,South,9.2,,,,,190,2012-11-16 12:00:00
2:00 PM,86.0,50.0,29,29.92,-9999.0,South,9.2,-,N/A,,Clear,190,2012-11-16 12:00:00
3:00 PM,86.0,50.0,29,29.92,-9999.0,SSW,9.2,-,N/A,,Clear,210,2012-11-16 13:00:00
4:00 PM,86.0,50.0,29,29.92,-9999.0,SW,9.2,-,N/A,,Clear,220,2012-11-16 14:00:00
5:00 PM,80.6,50.0,34,29.92,-9999.0,North,4.6,-,N/A,,Clear,350,2012-11-16 15:00:00
6:00 PM,77.0,50.0,39,29.92,-9999.0,North,8.1,-,N/A,,Clear,350,2012-11-16 16:00:00
7:00 PM,73.4,50.0,44,29.95,-9999.0,North,6.9,-,N/A,,Clear,350,2012-11-16 17:00:00
8:00 PM,71,47,32,29.94,6,NNW,8.1,,,,,340,2012-11-16 18:00:00
8:00 PM,71.6,48.2,43,29.95,-9999.0,NNW,8.1,-,N/A,,Clear,340,2012-11-16 18:00:00
9:00 PM,69.8,48.2,46,29.95,-9999.0,North,5.8,-,N/A,,Clear,350,2012-11-16 19:00:00
10:00 PM,68.0,48.2,49,29.95,-9999.0,North,5.8,-,N/A,,Clear,350,2012-11-16 20:00:00
11:00 PM,66.2,50.0,56,29.95,-9999.0,NNW,3.5,-,N/A,,Clear,340,2012-11-16 21:00:00